STARLINK-4101

operational
NORAD ID: 53142 Int'l Des: 2022-083 Owner: SPXS Country: US Constellation: starlink
LEOCIRCULAR

STARLINK-4101について

説明を読み込み中...

リアルタイム位置

3D地球を読み込み中...

次回通過

高度履歴

Altitude vs Time

uPlot chart will show altitude changes over time

軌道要素

1 53142U 22083L 25251.75831153 -.00000411 00000-0 -77111-5 0 9998
2 53142 53.2171 270.8159 0001341 87.3857 272.7289 15.08834735173760
Epoch: Sep 8, 2025 • Age: 16 hours

現在のステータス

高度 539.9 km
速度 7.60 km/s
衛星直下点 21.25°N, 142.68°E
打ち上げ日 Jul 17, 2022
運用期間 3.1 years
タイプ internet

技術仕様

分類 Payload
質量 297.00 kg
乾燥質量 275.00 kg
総質量 297.00 kg
長さ 0.20 m
直径 2.80 m
スパン 9.00 m
形状 Box + pan
製造者 SPXS
バスタイプ Starlink
フェーズステータス In Orbit
所有者/国 SPXS/US

大規模コンステレーション

Loading constellations...